Location: Haulchin
(50.3172°N, 3.4360°E)
Time: 14:14:13
(UTC+00:00)

Cosmos 1140 Rocket - Pass Details

Date: 23 May 2024
Orbit: 742 x 764 km, 74.1° (Epoch: 16 June)

Event Time Altitude Azimuth Distance (km) Brightness Sun altitude
Exits shadow 00:22:28 26° 229° (SW) 1,460 4.5 -18.5°
Maximum altitude 00:25:16 58° 298° (WNW) 895 3.9 -18.4°
Drops below altitude 10° 00:30:26 10° 18° (NNE) 2,306 7.2 -18.3°
Sets 00:32:51 0° 22° (NNE) 3,233 8.3 -18.2°
